timestamp,wind_dir_avg,wind_spd_avg,wind_spd_max_dir,wind_spd_gust,battery_voltage,lat,long
2023-06-09 00:04:00+00:00,195.0,3.7,196.0,4.05,12.97,47.59359,-54.27349
2023-06-09 00:14:01+00:00,208.0,3.79,212.0,4.17,12.49,47.59359,-54.27349
2023-06-09 00:24:01+00:00,210.0,2.82,211.0,3.02,12.49,47.59359,-54.27349
2023-06-09 00:34:01+00:00,182.0,4.04,184.0,4.29,12.49,47.59359,-54.27349
2023-06-09 00:44:01+00:00,166.0,2.07,168.0,2.39,12.49,47.59359,-54.27349
2023-06-09 00:54:01+00:00,155.0,1.74,155.0,1.85,12.49,47.59359,-54.27349
2023-06-09 01:04:01+00:00,173.0,2.51,173.0,2.6,12.49,47.59359,-54.27349
2023-06-09 01:14:00+00:00,193.0,3.57,195.0,3.82,12.41,47.59359,-54.27349
2023-06-09 01:24:00+00:00,189.0,4.03,192.0,4.09,12.41,47.59359,-54.27349
2023-06-09 01:34:00+00:00,191.0,2.49,191.0,2.76,12.41,47.59359,-54.27349
2023-06-09 01:44:00+00:00,179.0,2.09,181.0,2.15,12.41,47.59359,-54.27349
2023-06-09 01:54:00+00:00,162.0,1.54,166.0,1.65,12.41,47.59359,-54.27349
2023-06-09 02:04:00+00:00,123.0,1.82,125.0,2.17,12.41,47.59359,-54.27349
2023-06-09 02:14:00+00:00,161.0,0.94,161.0,1.11,12.41,47.59359,-54.27349
2023-06-09 02:24:00+00:00,131.0,0.62,141.0,0.89,12.41,47.59359,-54.27349
2023-06-09 02:34:00+00:00,135.0,1.9,136.0,2.04,12.41,47.59359,-54.27349
2023-06-09 02:44:00+00:00,133.0,1.9,134.0,2.04,12.41,47.59359,-54.27349
2023-06-09 02:54:00+00:00,146.0,1.54,148.0,1.61,12.41,47.59359,-54.27349
2023-06-09 03:04:00+00:00,164.0,1.81,165.0,1.86,12.41,47.59359,-54.27349
2023-06-09 03:14:00+00:00,198.0,1.74,197.0,1.82,12.41,47.59359,-54.27349
2023-06-09 03:24:00+00:00,199.0,2.05,202.0,2.25,12.41,47.59359,-54.27349
2023-06-09 03:34:00+00:00,214.0,0.76,218.0,0.85,12.41,47.59359,-54.27349
2023-06-09 03:44:00+00:00,121.0,0.26,92.0,0.48,12.41,47.59359,-54.27349
2023-06-09 03:54:00+00:00,35.0,2.0,35.0,2.15,12.41,47.59359,-54.27349
2023-06-09 04:04:00+00:00,32.0,1.45,34.0,1.51,12.41,47.59359,-54.27349
2023-06-09 04:14:00+00:00,25.0,1.54,24.0,1.73,12.33,47.59359,-54.27349
2023-06-09 04:24:00+00:00,30.0,2.2,30.0,2.48,12.33,47.59359,-54.27349
2023-06-09 04:34:00+00:00,31.0,2.55,30.0,2.79,12.33,47.59359,-54.27349
2023-06-09 04:44:00+00:00,28.0,2.96,30.0,3.36,12.33,47.59359,-54.27349
2023-06-09 04:54:00+00:00,37.0,4.82,38.0,5.07,12.33,47.59359,-54.27349
2023-06-09 05:04:00+00:00,38.0,2.87,37.0,3.09,12.33,47.59359,-54.27349
2023-06-09 05:14:01+00:00,37.0,3.41,36.0,3.53,12.33,47.59359,-54.27349
2023-06-09 05:24:01+00:00,38.0,3.81,38.0,3.98,12.33,47.59359,-54.27349
2023-06-09 05:34:01+00:00,66.0,1.89,57.0,2.11,12.33,47.59359,-54.27349
2023-06-09 05:44:01+00:00,103.0,2.32,102.0,2.44,12.33,47.59359,-54.27349
2023-06-09 05:54:01+00:00,114.0,1.93,116.0,2.15,12.33,47.59359,-54.27349
2023-06-09 06:04:01+00:00,55.0,2.56,54.0,2.78,12.33,47.59359,-54.27349
2023-06-09 06:14:00+00:00,33.0,3.07,33.0,3.4,12.33,47.59359,-54.27349
2023-06-09 06:24:00+00:00,37.0,4.17,36.0,4.49,12.33,47.59359,-54.27349
2023-06-09 06:34:00+00:00,44.0,4.02,44.0,4.32,12.33,47.59359,-54.27349
2023-06-09 06:44:00+00:00,46.0,3.87,47.0,4.14,12.33,47.59359,-54.27349
2023-06-09 06:54:00+00:00,40.0,3.67,38.0,3.91,12.33,47.59359,-54.27349
2023-06-09 07:04:00+00:00,42.0,4.18,44.0,4.46,12.33,47.59359,-54.27349
2023-06-09 07:14:01+00:00,49.0,4.27,49.0,4.85,12.25,47.59359,-54.27349
2023-06-09 07:24:01+00:00,46.0,4.06,49.0,4.43,12.25,47.59359,-54.27349
2023-06-09 07:34:01+00:00,40.0,4.93,39.0,5.33,12.25,47.59359,-54.27349
2023-06-09 07:44:01+00:00,39.0,4.58,41.0,4.97,12.25,47.59359,-54.27349
2023-06-09 07:54:01+00:00,53.0,5.57,54.0,6.17,12.25,47.59359,-54.27349
2023-06-09 08:04:01+00:00,52.0,5.41,54.0,5.77,12.25,47.59359,-54.27349
2023-06-09 08:14:00+00:00,53.0,5.39,51.0,5.84,12.25,47.59359,-54.27349
2023-06-09 08:24:00+00:00,53.0,5.71,55.0,6.18,12.25,47.59359,-54.27349
2023-06-09 08:34:00+00:00,53.0,5.36,55.0,5.86,12.25,47.59359,-54.27349
2023-06-09 08:44:00+00:00,55.0,5.18,58.0,5.5,12.25,47.59359,-54.27349
2023-06-09 08:54:00+00:00,52.0,5.35,52.0,5.71,12.25,47.59359,-54.27349
2023-06-09 09:04:00+00:00,57.0,5.19,57.0,5.72,12.25,47.59359,-54.27349
2023-06-09 09:14:00+00:00,52.0,5.83,53.0,6.27,12.25,47.59359,-54.27349
2023-06-09 09:24:00+00:00,50.0,5.48,50.0,6.15,12.25,47.59359,-54.27349
2023-06-09 09:34:00+00:00,51.0,5.1,51.0,5.73,12.25,47.59359,-54.27349
2023-06-09 09:44:00+00:00,52.0,4.55,54.0,5.02,12.25,47.59359,-54.27349
2023-06-09 09:54:00+00:00,49.0,4.56,48.0,5.25,12.25,47.59359,-54.27349
2023-06-09 10:04:00+00:00,50.0,3.31,48.0,3.7,12.25,47.59359,-54.27349
2023-06-09 10:14:00+00:00,49.0,2.94,47.0,3.23,12.41,47.59359,-54.27349
2023-06-09 10:24:00+00:00,44.0,4.27,45.0,4.68,12.41,47.59359,-54.27349
2023-06-09 10:34:00+00:00,51.0,3.86,51.0,4.27,12.41,47.59359,-54.27349
2023-06-09 10:44:00+00:00,55.0,4.38,55.0,4.55,12.41,47.59359,-54.27349
2023-06-09 10:54:00+00:00,43.0,5.12,42.0,5.45,12.41,47.59359,-54.27349
2023-06-09 11:04:00+00:00,38.0,5.36,37.0,5.75,12.41,47.59359,-54.27349
2023-06-09 11:14:00+00:00,36.0,6.03,36.0,6.46,12.73,47.59359,-54.27349
2023-06-09 11:24:00+00:00,47.0,5.82,49.0,6.26,12.73,47.59359,-54.27349
2023-06-09 11:34:00+00:00,42.0,5.71,46.0,6.03,12.73,47.59359,-54.27349
2023-06-09 11:44:00+00:00,44.0,4.99,40.0,5.51,12.73,47.59359,-54.27349
2023-06-09 11:54:00+00:00,41.0,4.76,42.0,5.24,12.73,47.59359,-54.27349
2023-06-09 12:04:00+00:00,49.0,4.33,48.0,5.01,12.73,47.59359,-54.27349
2023-06-09 12:14:00+00:00,52.0,5.32,55.0,5.77,13.13,47.59359,-54.27349
2023-06-09 12:24:00+00:00,55.0,5.8,53.0,6.48,13.13,47.59359,-54.27349
2023-06-09 12:34:00+00:00,57.0,5.49,58.0,6.55,13.13,47.59359,-54.27349
2023-06-09 12:44:00+00:00,59.0,4.93,61.0,5.73,13.13,47.59359,-54.27349
2023-06-09 12:54:00+00:00,56.0,5.44,55.0,5.98,13.13,47.59359,-54.27349
2023-06-09 13:04:00+00:00,52.0,5.16,53.0,5.73,13.13,47.59359,-54.27349
2023-06-09 13:14:00+00:00,54.0,5.3,56.0,5.89,13.53,47.59359,-54.27349
2023-06-09 13:24:00+00:00,48.0,5.31,46.0,5.86,13.53,47.59359,-54.27349
2023-06-09 13:34:00+00:00,51.0,5.52,49.0,6.11,13.53,47.59359,-54.27349
2023-06-09 13:44:00+00:00,44.0,5.72,44.0,6.47,13.53,47.59359,-54.27349
2023-06-09 13:54:00+00:00,49.0,5.52,46.0,6.04,13.53,47.59359,-54.27349
2023-06-09 14:04:00+00:00,47.0,5.01,48.0,5.54,13.53,47.59359,-54.27349
2023-06-09 14:14:00+00:00,46.0,4.83,47.0,5.04,13.44,47.59359,-54.27349
2023-06-09 14:24:00+00:00,44.0,4.61,47.0,5.06,13.44,47.59359,-54.27349
2023-06-09 14:34:00+00:00,38.0,4.51,39.0,4.86,13.44,47.59359,-54.27349
2023-06-09 14:44:00+00:00,41.0,4.72,40.0,4.99,13.44,47.59359,-54.27349
2023-06-09 14:54:00+00:00,41.0,4.63,42.0,4.93,13.44,47.59359,-54.27349
2023-06-09 15:04:00+00:00,42.0,4.63,41.0,4.85,13.44,47.59359,-54.27349
2023-06-09 15:14:01+00:00,42.0,4.58,41.0,4.86,13.68,47.59359,-54.27349
2023-06-09 15:24:01+00:00,49.0,3.6,49.0,3.99,13.68,47.59359,-54.27349
2023-06-09 15:34:01+00:00,53.0,3.43,50.0,3.79,13.68,47.59359,-54.27349
2023-06-09 15:44:01+00:00,44.0,5.26,44.0,5.89,13.68,47.59359,-54.27349
2023-06-09 15:54:01+00:00,43.0,5.35,43.0,6.04,13.68,47.59359,-54.27349
2023-06-09 16:04:01+00:00,39.0,4.97,42.0,5.47,13.68,47.59359,-54.27349
2023-06-09 16:14:00+00:00,38.0,4.6,39.0,5.07,13.68,47.59359,-54.27349
2023-06-09 16:24:00+00:00,37.0,4.01,34.0,4.42,13.68,47.59359,-54.27349
2023-06-09 16:34:00+00:00,46.0,5.61,45.0,6.18,13.68,47.59359,-54.27349
2023-06-09 16:44:00+00:00,50.0,6.01,52.0,6.6,13.68,47.59359,-54.27349
2023-06-09 16:54:00+00:00,42.0,6.13,41.0,6.77,13.68,47.59359,-54.27349
2023-06-09 17:04:00+00:00,40.0,7.08,45.0,7.65,13.68,47.59359,-54.27349
2023-06-09 17:14:00+00:00,38.0,6.5,37.0,6.98,14.32,47.59359,-54.27349
2023-06-09 17:24:00+00:00,36.0,6.63,36.0,7.15,14.32,47.59359,-54.27349
2023-06-09 17:34:00+00:00,35.0,6.33,33.0,6.74,14.32,47.59359,-54.27349
2023-06-09 17:44:00+00:00,33.0,6.13,35.0,6.55,14.32,47.59359,-54.27349
2023-06-09 17:54:00+00:00,35.0,6.05,34.0,6.39,14.32,47.59359,-54.27349
2023-06-09 18:04:00+00:00,40.0,6.65,41.0,6.95,14.32,47.59359,-54.27349
2023-06-09 18:14:00+00:00,35.0,6.62,33.0,7.16,13.6,47.59359,-54.27349
2023-06-09 18:24:00+00:00,43.0,5.31,44.0,5.77,13.6,47.59359,-54.27349
2023-06-09 18:34:00+00:00,39.0,5.55,42.0,5.78,13.6,47.59359,-54.27349
2023-06-09 18:44:00+00:00,52.0,5.12,51.0,5.39,13.6,47.59359,-54.27349
2023-06-09 18:54:00+00:00,58.0,4.14,47.0,5.3,13.6,47.59359,-54.27349
2023-06-09 19:04:00+00:00,72.0,7.55,74.0,10.39,13.6,47.59359,-54.27349
2023-06-09 19:14:01+00:00,71.0,8.06,72.0,10.29,13.68,47.59359,-54.27349
2023-06-09 19:24:01+00:00,70.0,7.02,77.0,9.75,13.68,47.59359,-54.27349
2023-06-09 19:34:01+00:00,68.0,5.64,75.0,7.42,13.68,47.59359,-54.27349
2023-06-09 19:44:01+00:00,69.0,6.27,75.0,7.59,13.68,47.59359,-54.27349
2023-06-09 19:54:01+00:00,53.0,5.96,59.0,7.55,13.68,47.59359,-54.27349
2023-06-09 20:04:01+00:00,53.0,5.48,53.0,5.88,13.68,47.59359,-54.27349
2023-06-09 20:14:00+00:00,60.0,4.72,61.0,6.12,13.29,47.59359,-54.27349
2023-06-09 20:24:00+00:00,61.0,8.14,65.0,9.64,13.29,47.59359,-54.27349
2023-06-09 20:34:00+00:00,46.0,5.44,43.0,5.87,13.29,47.59359,-54.27349
2023-06-09 20:44:00+00:00,42.0,6.11,44.0,6.32,13.29,47.59359,-54.27349
2023-06-09 20:54:00+00:00,45.0,6.13,45.0,6.37,13.29,47.59359,-54.27349
2023-06-09 21:04:00+00:00,36.0,7.08,37.0,7.67,13.29,47.59359,-54.27349
2023-06-09 21:14:00+00:00,41.0,8.27,44.0,9.0,13.05,47.59359,-54.27349
2023-06-09 21:24:00+00:00,42.0,6.64,40.0,7.18,13.05,47.59359,-54.27349
2023-06-09 21:34:00+00:00,37.0,4.6,39.0,5.17,13.05,47.59359,-54.27349
2023-06-09 21:44:00+00:00,38.0,4.9,38.0,5.42,13.05,47.59359,-54.27349
2023-06-09 21:54:00+00:00,51.0,6.31,50.0,7.41,13.05,47.59359,-54.27349
2023-06-09 22:04:00+00:00,56.0,6.53,47.0,7.53,13.05,47.59359,-54.27349
2023-06-09 22:14:00+00:00,56.0,6.75,53.0,7.55,12.81,47.59359,-54.27349
2023-06-09 22:24:00+00:00,54.0,7.05,54.0,8.19,12.81,47.59359,-54.27349
2023-06-09 22:34:00+00:00,51.0,7.75,50.0,8.8,12.81,47.59359,-54.27349
2023-06-09 22:44:00+00:00,47.0,8.31,45.0,8.93,12.81,47.59359,-54.27349
2023-06-09 22:54:00+00:00,42.0,8.21,38.0,8.73,12.81,47.59359,-54.27349
2023-06-09 23:04:00+00:00,42.0,8.22,42.0,8.95,12.81,47.59359,-54.27349
2023-06-09 23:14:01+00:00,47.0,6.88,61.0,7.76,12.49,47.59359,-54.27349
2023-06-09 23:24:01+00:00,48.0,7.14,50.0,7.92,12.49,47.59359,-54.27349
2023-06-09 23:34:01+00:00,50.0,6.77,49.0,7.65,12.49,47.59359,-54.27349
2023-06-09 23:44:01+00:00,50.0,7.16,50.0,8.04,12.49,47.59359,-54.27349
2023-06-09 23:54:01+00:00,56.0,6.06,58.0,6.56,12.49,47.59359,-54.27349
